sat.trackr.live / text

‹ back to catalog

CE-SAT IIB

NORAD 46818 · 2020-077F

PAYLOAD ACTIVE UNKNOWN

§ Identity

Operator
Country
JPN
Launch date
2020-10-28
Launch site
RLLB
Launch vehicle
Mass (kg)
RCS (m²)

External: N2YO · Heavens-Above · Gunter

§ Orbital elements

Epoch: 2026-05-25T00:01:21.668736Z

Period
90.35 min
Inclination
97.1990°
Eccentricity
0.0004311
Mean motion
15.93789971 rev/d
Perigee alt
288.8 km
Apogee alt
294.6 km
Semi-major
6,669.8 km
B*
4.0710e-4
RAAN
226.2160°
Arg perigee
204.3518°
Mean anomaly
155.7555°
Rev number
31,158

§ Raw data

CE-SAT IIB1 46818U 20077F   26145.00094524  .00146537  10165-4  40710-3 0  99932 46818  97.1990 226.2160 0004311 204.3518 155.7555 15.93789971311585

JSON: /api/v1/satellites/46818 · /tle

For live sub-satellite position, see the globe view (requires WebGL).

§ Visibility from observer

Set your observer location to see the next 7 days of passes ≥ 10°. The values pass through the URL so the page stays shareable.

No JS? Fill the form by hand. The geolocation button needs JavaScript.